Location: Hopewell Observatory
(38.8698°N, 77.6988°W)
Time: 14:00:08
(UTC-04:00)

Lacrosse 5 rocket - Pass Details

Date: 26 May 2018
Orbit: 458 x 642 km, 57.0° (Epoch: 10 October)

Event Time Altitude Azimuth Distance (km) Brightness Sun altitude
Rises 21:54:51 0° 322° (NW) 2,859 6.8 -14.8°
Reaches altitude 10° 21:57:19 10° 330° (NNW) 1,924 5.3 -15.1°
Maximum altitude 22:01:26 40° 40° (NE) 844 2.3 -15.7°
Enters shadow 22:03:31 23° 96° (E) 1,195 2.6 -16.0°
